owner,sensor,date,latitude,longitude,sea_surface_height_above_sea_level,qcFlag 
DISL,ioos:station:DISL:PPTA:1,2017-11-01T00:30:00Z,30.2791,-87.5561,1.201,1111122 
DISL,ioos:station:DISL:PPTA:1,2017-11-01T01:30:00Z,30.2791,-87.5561,1.199,1111122 
DISL,ioos:station:DISL:PPTA:1,2017-11-01T02:30:00Z,30.2791,-87.5561,1.199,1111122 
DISL,ioos:station:DISL:PPTA:1,2017-11-01T03:30:00Z,30.2791,-87.5561,1.192,1111122 
DISL,ioos:station:DISL:PPTA:1,2017-11-01T04:30:00Z,30.2791,-87.5561,1.191,1111122 
DISL,ioos:station:DISL:PPTA:1,2017-11-01T05:30:00Z,30.2791,-87.5561,1.18,1111122 
DISL,ioos:station:DISL:PPTA:1,2017-11-01T06:30:00Z,30.2791,-87.5561,1.197,1111122 
DISL,ioos:station:DISL:PPTA:1,2017-11-01T07:30:00Z,30.2791,-87.5561,1.218,1111122 
DISL,ioos:station:DISL:PPTA:1,2017-11-01T08:30:00Z,30.2791,-87.5561,1.241,1111122 
DISL,ioos:station:DISL:PPTA:1,2017-11-01T09:30:00Z,30.2791,-87.5561,1.242,1111122 
DISL,ioos:station:DISL:PPTA:1,2017-11-01T10:30:00Z,30.2791,-87.5561,1.248,1111122 
DISL,ioos:station:DISL:PPTA:1,2017-11-01T11:30:00Z,30.2791,-87.5561,1.258,1111122 
DISL,ioos:station:DISL:PPTA:1,2017-11-01T12:30:00Z,30.2791,-87.5561,1.278,1111122 
DISL,ioos:station:DISL:PPTA:1,2017-11-01T13:30:00Z,30.2791,-87.5561,1.303,1111122 
DISL,ioos:station:DISL:PPTA:1,2017-11-01T14:30:00Z,30.2791,-87.5561,1.32,1111122 
DISL,ioos:station:DISL:PPTA:1,2017-11-01T15:30:00Z,30.2791,-87.5561,1.323,1111122 
DISL,ioos:station:DISL:PPTA:1,2017-11-01T16:30:00Z,30.2791,-87.5561,1.326,1111122 
DISL,ioos:station:DISL:PPTA:1,2017-11-01T17:30:00Z,30.2791,-87.5561,1.323,1111122 
DISL,ioos:station:DISL:PPTA:1,2017-11-01T18:30:00Z,30.2791,-87.5561,1.316,1111122 
DISL,ioos:station:DISL:PPTA:1,2017-11-01T19:30:00Z,30.2791,-87.5561,1.346,1111122 
DISL,ioos:station:DISL:PPTA:1,2017-11-01T20:30:00Z,30.2791,-87.5561,1.349,1111122 
DISL,ioos:station:DISL:PPTA:1,2017-11-01T21:30:00Z,30.2791,-87.5561,1.364,1111122 
DISL,ioos:station:DISL:PPTA:1,2017-11-01T22:30:00Z,30.2791,-87.5561,1.393,1111122 
DISL,ioos:station:DISL:PPTA:1,2017-11-01T23:30:00Z,30.2791,-87.5561,1.386,1111122 
DISL,ioos:station:DISL:PPTA:1,2017-11-02T00:30:00Z,30.2791,-87.5561,1.395,1111122 
DISL,ioos:station:DISL:PPTA:1,2017-11-02T01:30:00Z,30.2791,-87.5561,1.427,1111122 
DISL,ioos:station:DISL:PPTA:1,2017-11-02T02:30:00Z,30.2791,-87.5561,1.435,1111122 
DISL,ioos:station:DISL:PPTA:1,2017-11-02T03:30:00Z,30.2791,-87.5561,1.44,1111122 
DISL,ioos:station:DISL:PPTA:1,2017-11-02T04:30:00Z,30.2791,-87.5561,1.419,1111122 
DISL,ioos:station:DISL:PPTA:1,2017-11-02T05:30:00Z,30.2791,-87.5561,1.37,1111122 
DISL,ioos:station:DISL:PPTA:1,2017-11-02T06:30:00Z,30.2791,-87.5561,1.396,1111122 
DISL,ioos:station:DISL:PPTA:1,2017-11-02T07:30:00Z,30.2791,-87.5561,1.416,1111122 
DISL,ioos:station:DISL:PPTA:1,2017-11-02T08:30:00Z,30.2791,-87.5561,1.381,1111122 
DISL,ioos:station:DISL:PPTA:1,2017-11-02T09:30:00Z,30.2791,-87.5561,1.373,1111122 
DISL,ioos:station:DISL:PPTA:1,2017-11-02T10:30:00Z,30.2791,-87.5561,1.373,1111122 
DISL,ioos:station:DISL:PPTA:1,2017-11-02T11:30:00Z,30.2791,-87.5561,1.379,1111122 
DISL,ioos:station:DISL:PPTA:1,2017-11-02T12:30:00Z,30.2791,-87.5561,1.378,1111122 
DISL,ioos:station:DISL:PPTA:1,2017-11-02T13:30:00Z,30.2791,-87.5561,1.378,1111122 
DISL,ioos:station:DISL:PPTA:1,2017-11-02T14:30:00Z,30.2791,-87.5561,1.384,1111122 
DISL,ioos:station:DISL:PPTA:1,2017-11-02T15:30:00Z,30.2791,-87.5561,1.373,1111122 
DISL,ioos:station:DISL:PPTA:1,2017-11-02T16:30:00Z,30.2791,-87.5561,1.347,1111122 
DISL,ioos:station:DISL:PPTA:1,2017-11-02T17:30:00Z,30.2791,-87.5561,1.342,1111122 
DISL,ioos:station:DISL:PPTA:1,2017-11-02T18:30:00Z,30.2791,-87.5561,1.352,1111122 
DISL,ioos:station:DISL:PPTA:1,2017-11-02T19:30:00Z,30.2791,-87.5561,1.364,1111122 
DISL,ioos:station:DISL:PPTA:1,2017-11-02T20:30:00Z,30.2791,-87.5561,1.376,1111122 
DISL,ioos:station:DISL:PPTA:1,2017-11-02T21:30:00Z,30.2791,-87.5561,1.38,1111122 
DISL,ioos:station:DISL:PPTA:1,2017-11-02T22:30:00Z,30.2791,-87.5561,1.386,1111122 
DISL,ioos:station:DISL:PPTA:1,2017-11-02T23:30:00Z,30.2791,-87.5561,1.379,1111122 
DISL,ioos:station:DISL:PPTA:1,2017-11-03T00:30:00Z,30.2791,-87.5561,1.4,1111122 
DISL,ioos:station:DISL:PPTA:1,2017-11-03T01:30:00Z,30.2791,-87.5561,1.398,1111122 
DISL,ioos:station:DISL:PPTA:1,2017-11-03T02:30:00Z,30.2791,-87.5561,1.411,1111122 
DISL,ioos:station:DISL:PPTA:1,2017-11-03T03:30:00Z,30.2791,-87.5561,1.402,1111122 
DISL,ioos:station:DISL:PPTA:1,2017-11-03T04:30:00Z,30.2791,-87.5561,1.381,1111122 
DISL,ioos:station:DISL:PPTA:1,2017-11-03T05:30:00Z,30.2791,-87.5561,1.347,1111122 
DISL,ioos:station:DISL:PPTA:1,2017-11-03T06:30:00Z,30.2791,-87.5561,1.334,1111122 
DISL,ioos:station:DISL:PPTA:1,2017-11-03T07:30:00Z,30.2791,-87.5561,1.308,1111122 
DISL,ioos:station:DISL:PPTA:1,2017-11-03T08:30:00Z,30.2791,-87.5561,1.295,1111122 
DISL,ioos:station:DISL:PPTA:1,2017-11-03T09:30:00Z,30.2791,-87.5561,1.271,1111122 
DISL,ioos:station:DISL:PPTA:1,2017-11-03T10:30:00Z,30.2791,-87.5561,1.282,1111122 
DISL,ioos:station:DISL:PPTA:1,2017-11-03T11:30:00Z,30.2791,-87.5561,1.272,1111122 
DISL,ioos:station:DISL:PPTA:1,2017-11-03T12:30:00Z,30.2791,-87.5561,1.267,1111122 
DISL,ioos:station:DISL:PPTA:1,2017-11-03T13:30:00Z,30.2791,-87.5561,1.269,1111122 
DISL,ioos:station:DISL:PPTA:1,2017-11-03T14:30:00Z,30.2791,-87.5561,1.282,1111122 
DISL,ioos:station:DISL:PPTA:1,2017-11-03T15:30:00Z,30.2791,-87.5561,1.281,1111122 
DISL,ioos:station:DISL:PPTA:1,2017-11-03T16:30:00Z,30.2791,-87.5561,1.283,1111122 
DISL,ioos:station:DISL:PPTA:1,2017-11-03T17:30:00Z,30.2791,-87.5561,1.297,1111122 
DISL,ioos:station:DISL:PPTA:1,2017-11-03T18:30:00Z,30.2791,-87.5561,1.292,1111122 
DISL,ioos:station:DISL:PPTA:1,2017-11-03T19:30:00Z,30.2791,-87.5561,1.312,1111122 
DISL,ioos:station:DISL:PPTA:1,2017-11-03T20:30:00Z,30.2791,-87.5561,1.332,1111122 
DISL,ioos:station:DISL:PPTA:1,2017-11-03T21:30:00Z,30.2791,-87.5561,1.359,1111122 
DISL,ioos:station:DISL:PPTA:1,2017-11-03T22:30:00Z,30.2791,-87.5561,1.398,1111122 
DISL,ioos:station:DISL:PPTA:1,2017-11-03T23:30:00Z,30.2791,-87.5561,1.432,1111122 
DISL,ioos:station:DISL:PPTA:1,2017-11-04T00:30:00Z,30.2791,-87.5561,1.448,1111122 
DISL,ioos:station:DISL:PPTA:1,2017-11-04T01:30:00Z,30.2791,-87.5561,1.46,1111122 
DISL,ioos:station:DISL:PPTA:1,2017-11-04T02:30:00Z,30.2791,-87.5561,1.462,1111122 
DISL,ioos:station:DISL:PPTA:1,2017-11-04T03:30:00Z,30.2791,-87.5561,1.485,1111122 
DISL,ioos:station:DISL:PPTA:1,2017-11-04T04:30:00Z,30.2791,-87.5561,1.453,1111122 
DISL,ioos:station:DISL:PPTA:1,2017-11-04T05:30:00Z,30.2791,-87.5561,1.416,1111122 
DISL,ioos:station:DISL:PPTA:1,2017-11-04T06:30:00Z,30.2791,-87.5561,1.382,1111122 
DISL,ioos:station:DISL:PPTA:1,2017-11-04T07:30:00Z,30.2791,-87.5561,1.343,1111122 
DISL,ioos:station:DISL:PPTA:1,2017-11-04T08:30:00Z,30.2791,-87.5561,1.3,1111122 
DISL,ioos:station:DISL:PPTA:1,2017-11-04T09:30:00Z,30.2791,-87.5561,1.264,1111122 
DISL,ioos:station:DISL:PPTA:1,2017-11-04T10:30:00Z,30.2791,-87.5561,1.248,1111122 
DISL,ioos:station:DISL:PPTA:1,2017-11-04T11:30:00Z,30.2791,-87.5561,1.246,1111122 
DISL,ioos:station:DISL:PPTA:1,2017-11-04T12:30:00Z,30.2791,-87.5561,1.233,1111122 
DISL,ioos:station:DISL:PPTA:1,2017-11-04T13:30:00Z,30.2791,-87.5561,1.226,1111122 
DISL,ioos:station:DISL:PPTA:1,2017-11-04T14:30:00Z,30.2791,-87.5561,1.238,1111122 
DISL,ioos:station:DISL:PPTA:1,2017-11-04T15:30:00Z,30.2791,-87.5561,1.24,1111122 
DISL,ioos:station:DISL:PPTA:1,2017-11-04T16:30:00Z,30.2791,-87.5561,1.251,1111122 
DISL,ioos:station:DISL:PPTA:1,2017-11-04T17:30:00Z,30.2791,-87.5561,1.243,1111122 
DISL,ioos:station:DISL:PPTA:1,2017-11-04T18:30:00Z,30.2791,-87.5561,1.232,1111122 
DISL,ioos:station:DISL:PPTA:1,2017-11-04T19:30:00Z,30.2791,-87.5561,1.256,1111122 
DISL,ioos:station:DISL:PPTA:1,2017-11-04T20:30:00Z,30.2791,-87.5561,1.278,1111122 
DISL,ioos:station:DISL:PPTA:1,2017-11-04T21:30:00Z,30.2791,-87.5561,1.311,1111122 
DISL,ioos:station:DISL:PPTA:1,2017-11-04T22:30:00Z,30.2791,-87.5561,1.355,1111122 
DISL,ioos:station:DISL:PPTA:1,2017-11-04T23:30:00Z,30.2791,-87.5561,1.395,1111122 
DISL,ioos:station:DISL:PPTA:1,2017-11-05T00:30:00Z,30.2791,-87.5561,1.432,1111122 
DISL,ioos:station:DISL:PPTA:1,2017-11-05T01:30:00Z,30.2791,-87.5561,1.46,1111122 
DISL,ioos:station:DISL:PPTA:1,2017-11-05T02:30:00Z,30.2791,-87.5561,1.469,1111122 
DISL,ioos:station:DISL:PPTA:1,2017-11-05T03:30:00Z,30.2791,-87.5561,1.479,1111122 
DISL,ioos:station:DISL:PPTA:1,2017-11-05T04:30:00Z,30.2791,-87.5561,1.489,1111122 
DISL,ioos:station:DISL:PPTA:1,2017-11-05T05:30:00Z,30.2791,-87.5561,1.461,1111122 
DISL,ioos:station:DISL:PPTA:1,2017-11-05T06:30:00Z,30.2791,-87.5561,1.412,1111122 
DISL,ioos:station:DISL:PPTA:1,2017-11-05T08:30:00Z,30.2791,-87.5561,1.352,1111122 
DISL,ioos:station:DISL:PPTA:1,2017-11-05T09:30:00Z,30.2791,-87.5561,1.311,1111122 
DISL,ioos:station:DISL:PPTA:1,2017-11-05T10:30:00Z,30.2791,-87.5561,1.263,1111122 
DISL,ioos:station:DISL:PPTA:1,2017-11-05T11:30:00Z,30.2791,-87.5561,1.263,1111122 
DISL,ioos:station:DISL:PPTA:1,2017-11-05T12:30:00Z,30.2791,-87.5561,1.244,1111122 
DISL,ioos:station:DISL:PPTA:1,2017-11-05T13:30:00Z,30.2791,-87.5561,1.223,1111122 
DISL,ioos:station:DISL:PPTA:1,2017-11-05T14:30:00Z,30.2791,-87.5561,1.227,1111122 
DISL,ioos:station:DISL:PPTA:1,2017-11-05T15:30:00Z,30.2791,-87.5561,1.219,1111122 
DISL,ioos:station:DISL:PPTA:1,2017-11-05T16:30:00Z,30.2791,-87.5561,1.248,1111122 
DISL,ioos:station:DISL:PPTA:1,2017-11-05T17:30:00Z,30.2791,-87.5561,1.26,1111122 
DISL,ioos:station:DISL:PPTA:1,2017-11-05T18:30:00Z,30.2791,-87.5561,1.241,1111122 
DISL,ioos:station:DISL:PPTA:1,2017-11-05T19:30:00Z,30.2791,-87.5561,1.251,1111122 
DISL,ioos:station:DISL:PPTA:1,2017-11-05T20:30:00Z,30.2791,-87.5561,1.284,1111122 
DISL,ioos:station:DISL:PPTA:1,2017-11-05T21:30:00Z,30.2791,-87.5561,1.321,1111122 
DISL,ioos:station:DISL:PPTA:1,2017-11-05T22:30:00Z,30.2791,-87.5561,1.358,1111122 
DISL,ioos:station:DISL:PPTA:1,2017-11-05T23:30:00Z,30.2791,-87.5561,1.399,1111122 
DISL,ioos:station:DISL:PPTA:1,2017-11-06T00:30:00Z,30.2791,-87.5561,1.452,1111122 
DISL,ioos:station:DISL:PPTA:1,2017-11-06T01:30:00Z,30.2791,-87.5561,1.486,1111122 
DISL,ioos:station:DISL:PPTA:1,2017-11-06T02:30:00Z,30.2791,-87.5561,1.508,1111122 
DISL,ioos:station:DISL:PPTA:1,2017-11-06T03:30:00Z,30.2791,-87.5561,1.523,1111122 
DISL,ioos:station:DISL:PPTA:1,2017-11-06T04:30:00Z,30.2791,-87.5561,1.534,1111122 
DISL,ioos:station:DISL:PPTA:1,2017-11-06T05:30:00Z,30.2791,-87.5561,1.523,1111122 
DISL,ioos:station:DISL:PPTA:1,2017-11-06T06:30:00Z,30.2791,-87.5561,1.491,1111122 
DISL,ioos:station:DISL:PPTA:1,2017-11-06T07:30:00Z,30.2791,-87.5561,1.443,1111122 
DISL,ioos:station:DISL:PPTA:1,2017-11-06T08:30:00Z,30.2791,-87.5561,1.401,1111122 
DISL,ioos:station:DISL:PPTA:1,2017-11-06T09:00:00Z,30.2791,-87.5561,1.37,1111122 
DISL,ioos:station:DISL:PPTA:1,2017-11-06T10:30:00Z,30.2791,-87.5561,1.312,1111122 
DISL,ioos:station:DISL:PPTA:1,2017-11-06T11:30:00Z,30.2791,-87.5561,1.279,1111122 
DISL,ioos:station:DISL:PPTA:1,2017-11-06T12:30:00Z,30.2791,-87.5561,1.244,1111122 
DISL,ioos:station:DISL:PPTA:1,2017-11-06T13:30:00Z,30.2791,-87.5561,1.224,1111122 
DISL,ioos:station:DISL:PPTA:1,2017-11-06T14:30:00Z,30.2791,-87.5561,1.19,1111122 
DISL,ioos:station:DISL:PPTA:1,2017-11-06T15:30:00Z,30.2791,-87.5561,1.178,1111122 
DISL,ioos:station:DISL:PPTA:1,2017-11-06T16:30:00Z,30.2791,-87.5561,1.189,1111122 
DISL,ioos:station:DISL:PPTA:1,2017-11-06T17:30:00Z,30.2791,-87.5561,1.201,1111122 
DISL,ioos:station:DISL:PPTA:1,2017-11-06T18:30:00Z,30.2791,-87.5561,1.209,1111122 
DISL,ioos:station:DISL:PPTA:1,2017-11-06T19:30:00Z,30.2791,-87.5561,1.198,1111122 
DISL,ioos:station:DISL:PPTA:1,2017-11-06T20:30:00Z,30.2791,-87.5561,1.205,1111122 
DISL,ioos:station:DISL:PPTA:1,2017-11-06T21:30:00Z,30.2791,-87.5561,1.227,1111122 
DISL,ioos:station:DISL:PPTA:1,2017-11-06T22:30:00Z,30.2791,-87.5561,1.257,1111122 
DISL,ioos:station:DISL:PPTA:1,2017-11-06T23:30:00Z,30.2791,-87.5561,1.3,1111122 
DISL,ioos:station:DISL:PPTA:1,2017-11-07T00:30:00Z,30.2791,-87.5561,1.352,1111122 
DISL,ioos:station:DISL:PPTA:1,2017-11-07T01:30:00Z,30.2791,-87.5561,1.396,1111122 
DISL,ioos:station:DISL:PPTA:1,2017-11-07T02:30:00Z,30.2791,-87.5561,1.432,1111122 
DISL,ioos:station:DISL:PPTA:1,2017-11-07T03:30:00Z,30.2791,-87.5561,1.455,1111122 
DISL,ioos:station:DISL:PPTA:1,2017-11-07T04:30:00Z,30.2791,-87.5561,1.456,1111122 
DISL,ioos:station:DISL:PPTA:1,2017-11-07T05:30:00Z,30.2791,-87.5561,1.464,1111122 
DISL,ioos:station:DISL:PPTA:1,2017-11-07T06:30:00Z,30.2791,-87.5561,1.474,1111122 
DISL,ioos:station:DISL:PPTA:1,2017-11-07T07:30:00Z,30.2791,-87.5561,1.439,1111122 
DISL,ioos:station:DISL:PPTA:1,2017-11-07T08:30:00Z,30.2791,-87.5561,1.389,1111122 
DISL,ioos:station:DISL:PPTA:1,2017-11-07T09:30:00Z,30.2791,-87.5561,1.342,1111122 
DISL,ioos:station:DISL:PPTA:1,2017-11-07T10:30:00Z,30.2791,-87.5561,1.314,1111122 
DISL,ioos:station:DISL:PPTA:1,2017-11-07T11:30:00Z,30.2791,-87.5561,1.283,1111122 
DISL,ioos:station:DISL:PPTA:1,2017-11-07T12:30:00Z,30.2791,-87.5561,1.253,1111122 
DISL,ioos:station:DISL:PPTA:1,2017-11-07T13:30:00Z,30.2791,-87.5561,1.229,1111122 
DISL,ioos:station:DISL:PPTA:1,2017-11-07T14:30:00Z,30.2791,-87.5561,1.194,1111122 
DISL,ioos:station:DISL:PPTA:1,2017-11-07T15:30:00Z,30.2791,-87.5561,1.173,1111122 
DISL,ioos:station:DISL:PPTA:1,2017-11-07T16:30:00Z,30.2791,-87.5561,1.189,1111122 
DISL,ioos:station:DISL:PPTA:1,2017-11-07T17:30:00Z,30.2791,-87.5561,1.191,1111122 
DISL,ioos:station:DISL:PPTA:1,2017-11-07T18:30:00Z,30.2791,-87.5561,1.182,1111122 
DISL,ioos:station:DISL:PPTA:1,2017-11-07T19:30:00Z,30.2791,-87.5561,1.204,1111122 
DISL,ioos:station:DISL:PPTA:1,2017-11-07T20:30:00Z,30.2791,-87.5561,1.212,1111122 
DISL,ioos:station:DISL:PPTA:1,2017-11-07T21:30:00Z,30.2791,-87.5561,1.229,1111122 
DISL,ioos:station:DISL:PPTA:1,2017-11-07T22:30:00Z,30.2791,-87.5561,1.265,1111122 
DISL,ioos:station:DISL:PPTA:1,2017-11-07T23:30:00Z,30.2791,-87.5561,1.303,1111122 
DISL,ioos:station:DISL:PPTA:1,2017-11-08T00:30:00Z,30.2791,-87.5561,1.36,1111122 
DISL,ioos:station:DISL:PPTA:1,2017-11-08T01:30:00Z,30.2791,-87.5561,1.403,1111122 
DISL,ioos:station:DISL:PPTA:1,2017-11-08T02:30:00Z,30.2791,-87.5561,1.434,1111122 
DISL,ioos:station:DISL:PPTA:1,2017-11-08T03:30:00Z,30.2791,-87.5561,1.462,1111122 
DISL,ioos:station:DISL:PPTA:1,2017-11-08T05:30:00Z,30.2791,-87.5561,1.497,1111122 
DISL,ioos:station:DISL:PPTA:1,2017-11-08T06:30:00Z,30.2791,-87.5561,1.5,1111122 
DISL,ioos:station:DISL:PPTA:1,2017-11-08T07:30:00Z,30.2791,-87.5561,1.497,1111122 
DISL,ioos:station:DISL:PPTA:1,2017-11-08T08:30:00Z,30.2791,-87.5561,1.452,1111122 
DISL,ioos:station:DISL:PPTA:1,2017-11-08T09:30:00Z,30.2791,-87.5561,1.395,1111122 
DISL,ioos:station:DISL:PPTA:1,2017-11-08T10:30:00Z,30.2791,-87.5561,1.36,1111122 
DISL,ioos:station:DISL:PPTA:1,2017-11-08T11:30:00Z,30.2791,-87.5561,1.33,1111122 
DISL,ioos:station:DISL:PPTA:1,2017-11-08T12:30:00Z,30.2791,-87.5561,1.294,1111122 
DISL,ioos:station:DISL:PPTA:1,2017-11-08T13:30:00Z,30.2791,-87.5561,1.256,1111122 
DISL,ioos:station:DISL:PPTA:1,2017-11-08T14:30:00Z,30.2791,-87.5561,1.245,1111122 
DISL,ioos:station:DISL:PPTA:1,2017-11-08T15:30:00Z,30.2791,-87.5561,1.207,1111122 
DISL,ioos:station:DISL:PPTA:1,2017-11-08T16:30:00Z,30.2791,-87.5561,1.182,1111122 
DISL,ioos:station:DISL:PPTA:1,2017-11-08T17:30:00Z,30.2791,-87.5561,1.178,1111122 
DISL,ioos:station:DISL:PPTA:1,2017-11-08T18:30:00Z,30.2791,-87.5561,1.187,1111122 
DISL,ioos:station:DISL:PPTA:1,2017-11-08T19:30:00Z,30.2791,-87.5561,1.204,1111122 
DISL,ioos:station:DISL:PPTA:1,2017-11-08T20:30:00Z,30.2791,-87.5561,1.206,1111122 
DISL,ioos:station:DISL:PPTA:1,2017-11-08T21:30:00Z,30.2791,-87.5561,1.224,1111122 
DISL,ioos:station:DISL:PPTA:1,2017-11-08T22:30:00Z,30.2791,-87.5561,1.225,1111122 
DISL,ioos:station:DISL:PPTA:1,2017-11-08T23:30:00Z,30.2791,-87.5561,1.269,1111122 
DISL,ioos:station:DISL:PPTA:1,2017-11-09T00:30:00Z,30.2791,-87.5561,1.304,1111122 
DISL,ioos:station:DISL:PPTA:1,2017-11-09T01:30:00Z,30.2791,-87.5561,1.345,1111122 
DISL,ioos:station:DISL:PPTA:1,2017-11-09T02:30:00Z,30.2791,-87.5561,1.392,1111122 
DISL,ioos:station:DISL:PPTA:1,2017-11-09T03:30:00Z,30.2791,-87.5561,1.431,1111122 
DISL,ioos:station:DISL:PPTA:1,2017-11-09T04:30:00Z,30.2791,-87.5561,1.449,1111122 
DISL,ioos:station:DISL:PPTA:1,2017-11-09T05:30:00Z,30.2791,-87.5561,1.462,1111122 
DISL,ioos:station:DISL:PPTA:1,2017-11-09T06:30:00Z,30.2791,-87.5561,1.475,1111122 
DISL,ioos:station:DISL:PPTA:1,2017-11-09T07:30:00Z,30.2791,-87.5561,1.485,1111122 
DISL,ioos:station:DISL:PPTA:1,2017-11-09T08:30:00Z,30.2791,-87.5561,1.478,1111122 
DISL,ioos:station:DISL:PPTA:1,2017-11-09T09:30:00Z,30.2791,-87.5561,1.424,1111122 
DISL,ioos:station:DISL:PPTA:1,2017-11-09T10:30:00Z,30.2791,-87.5561,1.407,1111122 
DISL,ioos:station:DISL:PPTA:1,2017-11-09T11:30:00Z,30.2791,-87.5561,1.36,1111122 
DISL,ioos:station:DISL:PPTA:1,2017-11-09T12:30:00Z,30.2791,-87.5561,1.324,1111122 
DISL,ioos:station:DISL:PPTA:1,2017-11-09T13:30:00Z,30.2791,-87.5561,1.3,1111122 
DISL,ioos:station:DISL:PPTA:1,2017-11-09T14:30:00Z,30.2791,-87.5561,1.239,1111122 
DISL,ioos:station:DISL:PPTA:1,2017-11-09T15:30:00Z,30.2791,-87.5561,1.206,1111122 
DISL,ioos:station:DISL:PPTA:1,2017-11-09T16:30:00Z,30.2791,-87.5561,1.209,1111122 
DISL,ioos:station:DISL:PPTA:1,2017-11-09T17:30:00Z,30.2791,-87.5561,1.201,1111122 
DISL,ioos:station:DISL:PPTA:1,2017-11-09T18:30:00Z,30.2791,-87.5561,1.18,1111122 
DISL,ioos:station:DISL:PPTA:1,2017-11-09T19:30:00Z,30.2791,-87.5561,1.187,1111122 
DISL,ioos:station:DISL:PPTA:1,2017-11-09T20:30:00Z,30.2791,-87.5561,1.212,1111122 
DISL,ioos:station:DISL:PPTA:1,2017-11-09T21:30:00Z,30.2791,-87.5561,1.222,1111122 
DISL,ioos:station:DISL:PPTA:1,2017-11-09T22:30:00Z,30.2791,-87.5561,1.213,1111122 
DISL,ioos:station:DISL:PPTA:1,2017-11-09T23:30:00Z,30.2791,-87.5561,1.215,1111122 
DISL,ioos:station:DISL:PPTA:1,2017-11-10T00:30:00Z,30.2791,-87.5561,1.234,1111122 
DISL,ioos:station:DISL:PPTA:1,2017-11-10T01:30:00Z,30.2791,-87.5561,1.27,1111122 
DISL,ioos:station:DISL:PPTA:1,2017-11-10T02:30:00Z,30.2791,-87.5561,1.314,1111122 
DISL,ioos:station:DISL:PPTA:1,2017-11-10T03:30:00Z,30.2791,-87.5561,1.34,1111122 
DISL,ioos:station:DISL:PPTA:1,2017-11-10T04:30:00Z,30.2791,-87.5561,1.366,1111122 
DISL,ioos:station:DISL:PPTA:1,2017-11-10T05:30:00Z,30.2791,-87.5561,1.391,1111122 
DISL,ioos:station:DISL:PPTA:1,2017-11-10T06:30:00Z,30.2791,-87.5561,1.407,1111122 
DISL,ioos:station:DISL:PPTA:1,2017-11-10T07:30:00Z,30.2791,-87.5561,1.407,1111122 
DISL,ioos:station:DISL:PPTA:1,2017-11-10T08:30:00Z,30.2791,-87.5561,1.421,1111122 
DISL,ioos:station:DISL:PPTA:1,2017-11-10T09:30:00Z,30.2791,-87.5561,1.41,1111122 
DISL,ioos:station:DISL:PPTA:1,2017-11-10T10:30:00Z,30.2791,-87.5561,1.398,1111122 
DISL,ioos:station:DISL:PPTA:1,2017-11-10T11:30:00Z,30.2791,-87.5561,1.343,1111122 
DISL,ioos:station:DISL:PPTA:1,2017-11-10T12:30:00Z,30.2791,-87.5561,1.318,1111122 
DISL,ioos:station:DISL:PPTA:1,2017-11-10T13:30:00Z,30.2791,-87.5561,1.302,1111122 
DISL,ioos:station:DISL:PPTA:1,2017-11-10T14:30:00Z,30.2791,-87.5561,1.259,1111122 
DISL,ioos:station:DISL:PPTA:1,2017-11-10T15:30:00Z,30.2791,-87.5561,1.267,1111122 
DISL,ioos:station:DISL:PPTA:1,2017-11-10T16:30:00Z,30.2791,-87.5561,1.237,1111122 
DISL,ioos:station:DISL:PPTA:1,2017-11-10T17:30:00Z,30.2791,-87.5561,1.213,1111122 
DISL,ioos:station:DISL:PPTA:1,2017-11-10T18:30:00Z,30.2791,-87.5561,1.186,1111122 
DISL,ioos:station:DISL:PPTA:1,2017-11-10T19:30:00Z,30.2791,-87.5561,1.188,1111122 
DISL,ioos:station:DISL:PPTA:1,2017-11-10T20:30:00Z,30.2791,-87.5561,1.192,1111122 
DISL,ioos:station:DISL:PPTA:1,2017-11-10T21:30:00Z,30.2791,-87.5561,1.201,1111122 
DISL,ioos:station:DISL:PPTA:1,2017-11-10T22:30:00Z,30.2791,-87.5561,1.22,1111122 
DISL,ioos:station:DISL:PPTA:1,2017-11-10T23:30:00Z,30.2791,-87.5561,1.211,1111122 
DISL,ioos:station:DISL:PPTA:1,2017-11-11T00:30:00Z,30.2791,-87.5561,1.211,1111122 
DISL,ioos:station:DISL:PPTA:1,2017-11-11T01:30:00Z,30.2791,-87.5561,1.236,1111122 
DISL,ioos:station:DISL:PPTA:1,2017-11-11T02:30:00Z,30.2791,-87.5561,1.255,1111122 
DISL,ioos:station:DISL:PPTA:1,2017-11-11T03:30:00Z,30.2791,-87.5561,1.276,1111122 
DISL,ioos:station:DISL:PPTA:1,2017-11-11T04:30:00Z,30.2791,-87.5561,1.317,1111122 
DISL,ioos:station:DISL:PPTA:1,2017-11-11T05:30:00Z,30.2791,-87.5561,1.343,1111122 
DISL,ioos:station:DISL:PPTA:1,2017-11-11T06:30:00Z,30.2791,-87.5561,1.377,1111122 
DISL,ioos:station:DISL:PPTA:1,2017-11-11T07:30:00Z,30.2791,-87.5561,1.382,1111122 
DISL,ioos:station:DISL:PPTA:1,2017-11-11T08:30:00Z,30.2791,-87.5561,1.386,1111122 
DISL,ioos:station:DISL:PPTA:1,2017-11-11T09:30:00Z,30.2791,-87.5561,1.398,1111122 
DISL,ioos:station:DISL:PPTA:1,2017-11-11T10:30:00Z,30.2791,-87.5561,1.407,1111122 
DISL,ioos:station:DISL:PPTA:1,2017-11-11T11:30:00Z,30.2791,-87.5561,1.4,1111122 
DISL,ioos:station:DISL:PPTA:1,2017-11-11T12:30:00Z,30.2791,-87.5561,1.374,1111122 
DISL,ioos:station:DISL:PPTA:1,2017-11-11T13:30:00Z,30.2791,-87.5561,1.354,1111122 
DISL,ioos:station:DISL:PPTA:1,2017-11-11T14:30:00Z,30.2791,-87.5561,1.355,1111122 
DISL,ioos:station:DISL:PPTA:1,2017-11-11T15:30:00Z,30.2791,-87.5561,1.332,1111122 
DISL,ioos:station:DISL:PPTA:1,2017-11-11T16:30:00Z,30.2791,-87.5561,1.31,1111122 
DISL,ioos:station:DISL:PPTA:1,2017-11-11T17:30:00Z,30.2791,-87.5561,1.303,1111122 
DISL,ioos:station:DISL:PPTA:1,2017-11-11T18:30:00Z,30.2791,-87.5561,1.297,1111122 
DISL,ioos:station:DISL:PPTA:1,2017-11-11T19:30:00Z,30.2791,-87.5561,1.294,1111122 
DISL,ioos:station:DISL:PPTA:1,2017-11-11T20:30:00Z,30.2791,-87.5561,1.297,1111122 
DISL,ioos:station:DISL:PPTA:1,2017-11-11T21:30:00Z,30.2791,-87.5561,1.308,1111122 
DISL,ioos:station:DISL:PPTA:1,2017-11-11T22:30:00Z,30.2791,-87.5561,1.31,1111122 
DISL,ioos:station:DISL:PPTA:1,2017-11-11T23:30:00Z,30.2791,-87.5561,1.317,1111122 
DISL,ioos:station:DISL:PPTA:1,2017-11-12T00:30:00Z,30.2791,-87.5561,1.339,1111122 
DISL,ioos:station:DISL:PPTA:1,2017-11-12T01:30:00Z,30.2791,-87.5561,1.385,1111122 
DISL,ioos:station:DISL:PPTA:1,2017-11-12T02:30:00Z,30.2791,-87.5561,1.381,1111122 
DISL,ioos:station:DISL:PPTA:1,2017-11-12T03:30:00Z,30.2791,-87.5561,1.413,1111122 
DISL,ioos:station:DISL:PPTA:1,2017-11-12T04:30:00Z,30.2791,-87.5561,1.435,1111122 
DISL,ioos:station:DISL:PPTA:1,2017-11-12T05:30:00Z,30.2791,-87.5561,1.45,1111122 
DISL,ioos:station:DISL:PPTA:1,2017-11-12T06:30:00Z,30.2791,-87.5561,1.476,1111122 
DISL,ioos:station:DISL:PPTA:1,2017-11-12T07:30:00Z,30.2791,-87.5561,1.457,1111122 
DISL,ioos:station:DISL:PPTA:1,2017-11-12T08:30:00Z,30.2791,-87.5561,1.435,1111122 
DISL,ioos:station:DISL:PPTA:1,2017-11-12T09:30:00Z,30.2791,-87.5561,1.457,1111122 
DISL,ioos:station:DISL:PPTA:1,2017-11-12T10:30:00Z,30.2791,-87.5561,1.465,1111122 
DISL,ioos:station:DISL:PPTA:1,2017-11-12T11:30:00Z,30.2791,-87.5561,1.471,1111122 
DISL,ioos:station:DISL:PPTA:1,2017-11-12T12:30:00Z,30.2791,-87.5561,1.441,1111122 
DISL,ioos:station:DISL:PPTA:1,2017-11-12T13:30:00Z,30.2791,-87.5561,1.419,1111122 
DISL,ioos:station:DISL:PPTA:1,2017-11-12T14:30:00Z,30.2791,-87.5561,1.406,1111122 
DISL,ioos:station:DISL:PPTA:1,2017-11-12T15:30:00Z,30.2791,-87.5561,1.375,1111122 
DISL,ioos:station:DISL:PPTA:1,2017-11-12T16:30:00Z,30.2791,-87.5561,1.359,1111122 
DISL,ioos:station:DISL:PPTA:1,2017-11-12T17:30:00Z,30.2791,-87.5561,1.335,1111122 
DISL,ioos:station:DISL:PPTA:1,2017-11-12T18:30:00Z,30.2791,-87.5561,1.351,1111122 
DISL,ioos:station:DISL:PPTA:1,2017-11-12T19:30:00Z,30.2791,-87.5561,1.35,1111122 
DISL,ioos:station:DISL:PPTA:1,2017-11-12T20:30:00Z,30.2791,-87.5561,1.351,1111122 
DISL,ioos:station:DISL:PPTA:1,2017-11-12T21:30:00Z,30.2791,-87.5561,1.338,1111122 
DISL,ioos:station:DISL:PPTA:1,2017-11-12T22:30:00Z,30.2791,-87.5561,1.343,1111122 
DISL,ioos:station:DISL:PPTA:1,2017-11-12T23:30:00Z,30.2791,-87.5561,1.347,1111122 
DISL,ioos:station:DISL:PPTA:1,2017-11-13T00:30:00Z,30.2791,-87.5561,1.364,1111122 
DISL,ioos:station:DISL:PPTA:1,2017-11-13T01:30:00Z,30.2791,-87.5561,1.409,1111122 